Regional Weather Roundup
Issued by NWS

Home | Current Version | Previous Version | Text Only | Print | Product List | Glossary On
Versions: 1 2 3 4 5 6 7 8 9 10 11 12 13 14 15 16 17 18 19 20 21 22 23 24 25 26 27 28 29 30 31 32 33 34 35 36 37 38 39 40 41 42 43 44 45 46 47 48 49 50
000
ASUS43 KDTX 240901
RWRMI
MICHIGAN HOURLY REGIONAL WEATHER ROUNDUP
NATIONAL WEATHER SERVICE DETROIT/PONTIAC MI
500 AM EDT TUE MAY 24 2016

NOTE: "FAIR" INDICATES FEW OR NO CLOUDS BELOW 12,000 FEET WITH NO
SIGNIFICANT WEATHER AND/OR OBSTRUCTION TO VISIBILITY.

MIZ047>049-052>055-059>063-066>070-074>076-081>083-241000-
SOUTHEAST LOWER MICHIGAN

CITY           SKY/WX    TMP DP  RH WIND       PRES   REMARKS
ADRIAN         CLEAR     46  43  89 CALM      30.02R
ALMA           CLEAR     45  43  94 W6        29.99S
ANN ARBOR      CLEAR     40  40 100 W3        30.01R FOG
BAD AXE        CLOUDY    52  37  56 CALM      29.98S
CARO           CLEAR     42  38  89 CALM      29.98R
DETROIT CITY   CLEAR     53  46  77 CALM      30.00S
DETROIT        PTCLDY    54  48  80 S3        30.01R
FLINT          CLEAR     49  42  77 CALM      30.00R
GROSSE ILE     CLEAR     52  48  87 CALM      29.99R
HILLSDALE      CLEAR     49  40  71 CALM      30.02R
HOWELL         CLEAR     49  44  80 CALM      30.00S

CITY           SKY/WX    TMP DP  RH WIND       PRES   REMARKS
JACKSON        CLEAR     49  41  74 CALM      30.01R
LAMBERTVILLE   CLEAR     48  46  93 CALM      30.01R FOG
LANSING        CLEAR     51  39  63 CALM      30.00S
LAPEER         FAIR      44  43  97 CALM      29.99S
MASON          CLEAR     49  41  75 CALM      30.00S
MONROE         CLEAR     47  47  99 W8        30.00R FOG
PONTIAC        CLEAR     49  45  86 CALM      29.99S
PORT HOPE        N/A     59  37  44 SW7       29.95S
PORT HURON       N/A     43  43 100 CALM      29.99S FOG
TRI CITIES     CLEAR     56  41  57 SW7       29.99S
MIDLAND        FAIR      44  43  96 CALM      29.97S
TROY           CLEAR     56  46  69 SW5       30.01S
SAGINAW HB     CLEAR     50  37  62 S5        29.98R
$$
MIZ043>046-050>051-056>058-064>065-071>073-077>080-241000-
SOUTHWEST LOWER MICHIGAN

CITY           SKY/WX    TMP DP  RH WIND       PRES   REMARKS
BATTLE CREEK   CLEAR     51  40  65 CALM      30.01R
BENTON HARBOR  CLEAR     57  38  48 S5        29.98R
BIG RAPIDS     CLEAR     46  44  91 CALM      29.97S
COLDWATER      CLEAR     46  44  93 CALM      30.01R
FREMONT        FAIR      52  42  70 CALM      29.97R
HOLLAND        CLEAR     57  38  48 CALM      29.98R
GRAND RAPIDS   CLEAR     52  41  66 S6        29.99R
IONIA          FAIR      51  37  60 S3        29.99R
KALAMAZOO      CLEAR     51  40  65 CALM      30.00R
LUDINGTON      CLEAR     55  39  54 E5        29.94R
MARSHALL       CLEAR     47  40  74 CALM      30.00R
MOUNT PLEASANT CLEAR     46  45  96 CALM      29.98R
MUSKEGON       CLEAR     66  35  31 S14G21    29.96S
SOUTH HAVEN    CLEAR     57  38  47 S3        29.98S HAZE
$$
MIZ016>042-241000-
NORTHERN LOWER MICHIGAN

CITY           SKY/WX    TMP DP  RH WIND       PRES   REMARKS
ALPENA         CLEAR     44  41  89 CALM      29.94F
BEAVER ISLAND  PTCLDY    65  34  31 S12       29.89S
BELLAIRE       CLEAR     44  42  95 CALM      29.94R
CADILLAC       CLEAR     44  39  82 CALM      29.97R
CHARLEVOIX     CLEAR     56  41  58 SE5       29.94S
FRANKFORT      PTCLDY    70  36  29 S12G20    29.92R
GAYLORD        CLEAR     59  37  44 SW3       29.95S
GRAYLING       CLEAR     41  39  94 CALM      29.97S
HARBOR SPRINGS CLEAR     50  41  72 CALM      29.92S
HOUGHTON LAKE  CLEAR     50  43  77 SW7       29.98R
MANISTEE       PTCLDY    48  37  66 E5        29.94S
OSCODA         CLEAR     46  41  84 SW5       29.95S
PELLSTON       CLEAR     46  39  76 E5        29.91S
ROGERS CITY    CLEAR     56  41  57 SW6       29.92F
TRAVERSE CITY  CLEAR     64  36  35 VRB6      29.92R
$$
MIZ007>008-015-241000-
EASTERN UPPER MICHIGAN

CITY           SKY/WX    TMP DP  RH WIND       PRES   REMARKS
KINROSS          N/A     48  43  81 E5        29.91S
MACKINAC ISLAN CLEAR     53  43  67 S3        29.91R
NEWBERRY       CLEAR     55  39  55 SW10      29.88F
S. S. MARIE    CLEAR     50  40  68 E5        29.92R
MUNISING         N/A     56  41  57 S6        29.84F
$$
MIZ004>006-011>014-085-241000-
CENTRAL UPPER MICHIGAN

CITY           SKY/WX    TMP DP  RH WIND       PRES   REMARKS
MANISTIQUE     CLOUDY    53  43  69 S6        29.88R
ESCANABA       CLOUDY    54  45  71 CALM      29.85F
MENOMINEE      CLEAR     60  47  61 SW6       29.87F
SAWYER-GWINN   MOCLDY    54  44  68 SW6       29.86R
$$
MIZ001>003-009>011-084-241000-
WESTERN UPPER MICHIGAN

CITY           SKY/WX    TMP DP  RH WIND       PRES   REMARKS
IRON MOUNTAIN  CLEAR     58  48  69 CALM      29.86R
HOUGHTON       CLOUDY    63  58  83 W13       29.83R
COPPER HARBOR    N/A     54  52  93 VRB3      29.81S
IRONWOOD       CLOUDY    61  59  94 S8        29.82R
$$

ABBREVIATIONS USED IN REMARKS
   TC - TEMPERATURE IN CELSIUS
  WCI - WIND CHILL INDEX
   HX - HEAT INDEX
  VSB - VISIBILITY




USA.gov is the U.S. government's official web portal to all federal, state and local government web resources and services.